When you browse on this site, cookies collect data to enhance your experience and personalize the content and advertising you see.
Visit our Privacy Policy to learn more. By continuing to use the site, you agree to this use of cookies and data.
  • In United Kingdom
  • List of Countries
  • For 7 days
  • Water Temperature
  • Weather Map
  • Weather Widgets
  • user-avatar
    Login

    Hourly Weather Edinburgh

    Today, 19 September, Thursday

    Time Temperature Precipitation Wind Pressure Humidity
    00:00 +12°C° 0 mm 1 mps 770 mmHg 96%
    01:00 +12°C° 0 mm 1 mps 770 mmHg 96%
    02:00 +12°C° 0 mm 1 mps 770 mmHg 96%
    03:00 +12°C° 0 mm 1 mps 770 mmHg 96%
    04:00 +12°C° 0 mm 1 mps 770 mmHg 95%
    05:00 +13°C° 0 mm 1 mps 770 mmHg 95%
    06:00 +13°C° 0 mm 1 mps 770 mmHg 95%
    07:00 +13°C° 0 mm 1 mps 770 mmHg 92%
    08:00 +14°C° 0 mm 1 mps 770 mmHg 89%
    09:00 +15°C° 0 mm 2 mps 770 mmHg 86%
    10:00 +16°C° 0 mm 2 mps 770 mmHg 83%
    11:00 +17°C° 0 mm 2 mps 770 mmHg 80%
    12:00 +19°C° 0 mm 1 mps 770 mmHg 77%
    13:00 +18°C° 0 mm 2 mps 770 mmHg 77%
    14:00 +18°C° 0 mm 2 mps 770 mmHg 77%
    15:00 +19°C° 0 mm 2 mps 770 mmHg 77%
    16:00 +17°C° 0 mm 2 mps 770 mmHg 81%
    17:00 +16°C° 0 mm 2 mps 769 mmHg 86%
    18:00 +15°C° 0 mm 1 mps 769 mmHg 90%
    19:00 +14°C° 0 mm 1 mps 769 mmHg 91%
    20:00 +14°C° 0 mm 1 mps 769 mmHg 92%
    21:00 +13°C° 0 mm 1 mps 769 mmHg 92%
    22:00 +13°C° 0 mm 1 mps 769 mmHg 93%
    23:00 +12°C° 0 mm 1 mps 769 mmHg 93%

    Tomorrow, 20 September, Friday

    Time Temperature Precipitation Wind Pressure Humidity
    00:00 +12°C° 0 mm 1 mps 769 mmHg 94%
    01:00 +12°C° 0 mm 1 mps 768 mmHg 93%
    02:00 +12°C° 0 mm 1 mps 768 mmHg 93%
    03:00 +12°C° 0 mm 1 mps 768 mmHg 93%
    04:00 +11°C° 0 mm 1 mps 767 mmHg 93%
    05:00 +11°C° 0 mm 1 mps 767 mmHg 93%
    06:00 +11°C° 0 mm 1 mps 766 mmHg 92%
    07:00 +13°C° 0 mm 1 mps 766 mmHg 88%
    08:00 +14°C° 0 mm 1 mps 766 mmHg 84%
    09:00 +16°C° 0 mm 1 mps 766 mmHg 80%
    10:00 +18°C° 0 mm 1 mps 766 mmHg 76%
    11:00 +20°C° 0 mm 1 mps 765 mmHg 72%
    12:00 +21°C° 0 mm 1 mps 765 mmHg 69%
    13:00 +20°C° 0 mm 2 mps 764 mmHg 69%
    14:00 +20°C° 0 mm 2 mps 764 mmHg 69%
    15:00 +21°C° 0 mm 3 mps 763 mmHg 69%
    16:00 +19°C° 0 mm 2 mps 762 mmHg 74%
    17:00 +18°C° 0 mm 2 mps 762 mmHg 79%
    18:00 +18°C° 0 mm 1 mps 761 mmHg 84%
    19:00 +16°C° 0 mm 2 mps 761 mmHg 86%
    20:00 +15°C° 0 mm 2 mps 761 mmHg 89%
    21:00 +14°C° 0 mm 2 mps 761 mmHg 91%
    22:00 +14°C° 0 mm 2 mps 761 mmHg 91%
    23:00 +13°C° 0 mm 2 mps 760 mmHg 92%

    Day after tomorrow, 21 September, Saturday

    Time Temperature Precipitation Wind Pressure Humidity
    00:00 +13°C° 0 mm 2 mps 760 mmHg 92%
    01:00 +13°C° 0 mm 2 mps 759 mmHg 92%
    02:00 +12°C° 0 mm 2 mps 759 mmHg 92%
    03:00 +12°C° 0 mm 2 mps 758 mmHg 92%
    04:00 +12°C° 0 mm 2 mps 758 mmHg 91%
    05:00 +10°C° 0 mm 2 mps 757 mmHg 90%
    06:00 +10°C° 0 mm 3 mps 757 mmHg 90%
    07:00 +11°C° 0 mm 3 mps 756 mmHg 85%
    08:00 +13°C° 0 mm 3 mps 756 mmHg 81%
    09:00 +14°C° 0 mm 4 mps 756 mmHg 76%
    10:00 +17°C° 0 mm 4 mps 755 mmHg 70%
    11:00 +17°C° 0 mm 5 mps 754 mmHg 65%
    12:00 +20°C° 0 mm 5 mps 754 mmHg 59%
    13:00 +20°C° 0 mm 5 mps 753 mmHg 60%
    14:00 +20°C° 0 mm 5 mps 752 mmHg 60%
    15:00 +20°C° 0 mm 5 mps 752 mmHg 61%
    16:00 +19°C° 0 mm 4 mps 752 mmHg 67%
    17:00 +18°C° 0 mm 4 mps 751 mmHg 72%
    18:00 +17°C° 0 mm 3 mps 751 mmHg 78%
    19:00 +14°C° 0 mm 3 mps 751 mmHg 82%
    20:00 +13°C° 0 mm 3 mps 751 mmHg 85%
    21:00 +12°C° 0 mm 3 mps 751 mmHg 89%
    22:00 +12°C° 0.1 mm 3 mps 750 mmHg 89%
    23:00 +12°C° 0.1 mm 3 mps 750 mmHg 90%

    22 September, Sunday

    Time Temperature Precipitation Wind Pressure Humidity
    00:00 +12°C° 0.1 mm 3 mps 750 mmHg 90%
    01:00 +12°C° 0 mm 3 mps 749 mmHg 90%
    02:00 +12°C° 0 mm 3 mps 749 mmHg 91%
    03:00 +12°C° 0 mm 3 mps 748 mmHg 91%
    04:00 +12°C° 0 mm 3 mps 748 mmHg 92%
    05:00 +12°C° 0 mm 3 mps 748 mmHg 93%
    06:00 +13°C° 0 mm 2 mps 748 mmHg 93%
    07:00 +13°C° 0.2 mm 2 mps 748 mmHg 94%
    08:00 +13°C° 0.2 mm 2 mps 748 mmHg 94%
    09:00 +14°C° 0.2 mm 2 mps 748 mmHg 94%
    10:00 +14°C° 0.5 mm 2 mps 748 mmHg 94%
    11:00 +14°C° 0.5 mm 1 mps 748 mmHg 95%
    12:00 +15°C° 0.5 mm 1 mps 748 mmHg 95%
    13:00 +15°C° 0.2 mm 1 mps 748 mmHg 94%
    14:00 +16°C° 0.2 mm 1 mps 747 mmHg 93%
    15:00 +16°C° 0.2 mm 2 mps 747 mmHg 91%
    16:00 +16°C° 0.4 mm 2 mps 747 mmHg 91%
    17:00 +15°C° 0.4 mm 2 mps 747 mmHg 92%
    18:00 +15°C° 0.4 mm 2 mps 747 mmHg 92%
    19:00 +14°C° 0 mm 1 mps 748 mmHg 92%
    20:00 +13°C° 0 mm 1 mps 748 mmHg 92%
    21:00 +12°C° 0 mm 1 mps 749 mmHg 93%
    22:00 +12°C° 0 mm 1 mps 749 mmHg 93%
    23:00 +12°C° 0 mm 2 mps 749 mmHg 94%

    23 September, Monday

    Time Temperature Precipitation Wind Pressure Humidity
    00:00 +12°C° 0 mm 2 mps 750 mmHg 94%
    01:00 +12°C° 0 mm 2 mps 750 mmHg 94%
    02:00 +12°C° 0 mm 2 mps 750 mmHg 94%
    03:00 +11°C° 0 mm 3 mps 750 mmHg 94%
    04:00 +10°C° 0 mm 2 mps 751 mmHg 95%
    05:00 +10°C° 0 mm 2 mps 751 mmHg 95%
    06:00 +9°C° 0 mm 2 mps 751 mmHg 95%
    07:00 +10°C° 0 mm 2 mps 751 mmHg 91%
    08:00 +12°C° 0 mm 2 mps 751 mmHg 88%
    09:00 +13°C° 0 mm 2 mps 751 mmHg 84%
    10:00 +14°C° 0 mm 2 mps 750 mmHg 81%
    11:00 +16°C° 0 mm 3 mps 750 mmHg 78%
    12:00 +17°C° 0 mm 3 mps 749 mmHg 74%
    13:00 +16°C° 0.7 mm 3 mps 749 mmHg 80%
    14:00 +14°C° 0.7 mm 3 mps 748 mmHg 85%
    15:00 +13°C° 0.7 mm 3 mps 748 mmHg 91%
    16:00 +13°C° 0.3 mm 3 mps 747 mmHg 92%
    17:00 +14°C° 0.3 mm 2 mps 747 mmHg 93%
    18:00 +14°C° 0.3 mm 2 mps 747 mmHg 94%
    19:00 +14°C° 0.1 mm 2 mps 747 mmHg 95%
    20:00 +14°C° 0.1 mm 1 mps 747 mmHg 95%
    21:00 +14°C° 0.1 mm 1 mps 747 mmHg 96%
    22:00 +14°C° 0.2 mm 1 mps 747 mmHg 96%
    23:00 +14°C° 0.2 mm 1 mps 747 mmHg 96%

    24 September, Tuesday

    Time Temperature Precipitation Wind Pressure Humidity
    00:00 +14°C° 0.2 mm 1 mps 748 mmHg 96%
    01:00 +14°C° 0 mm 2 mps 748 mmHg 96%
    02:00 +13°C° 0 mm 2 mps 748 mmHg 96%
    03:00 +13°C° 0 mm 2 mps 748 mmHg 96%
    04:00 +13°C° 0 mm 2 mps 747 mmHg 95%
    05:00 +12°C° 0 mm 2 mps 746 mmHg 95%
    06:00 +12°C° 0 mm 2 mps 746 mmHg 95%
    07:00 +13°C° 1.1 mm 2 mps 745 mmHg 95%
    08:00 +12°C° 1.1 mm 3 mps 744 mmHg 95%
    09:00 +13°C° 1.1 mm 3 mps 744 mmHg 96%
    10:00 +14°C° 1.2 mm 3 mps 743 mmHg 94%
    11:00 +14°C° 1.2 mm 3 mps 742 mmHg 93%
    12:00 +16°C° 1.2 mm 3 mps 741 mmHg 92%
    13:00 +16°C° 0.9 mm 3 mps 741 mmHg 88%
    14:00 +17°C° 0.9 mm 4 mps 740 mmHg 83%
    15:00 +17°C° 0.9 mm 4 mps 740 mmHg 79%
    16:00 +15°C° 0.2 mm 4 mps 740 mmHg 82%
    17:00 +14°C° 0.2 mm 3 mps 739 mmHg 84%
    18:00 +13°C° 0.2 mm 3 mps 739 mmHg 87%
    19:00 +13°C° 0 mm 2 mps 739 mmHg 88%
    20:00 +13°C° 0 mm 2 mps 738 mmHg 90%
    21:00 +12°C° 0 mm 1 mps 738 mmHg 91%
    22:00 +12°C° 0.4 mm 1 mps 738 mmHg 92%
    23:00 +13°C° 0.4 mm 1 mps 738 mmHg 94%
    Show more